| time (UTC) | temp F | wind direction | speed MPH | gust MPH | rain 1hr in | rain 24hr in | rain mn in | humidity % | barometer mb |
| 20260509162356 | 62 | 189 | 0.0 | 1.0 | 0.00 | 0.00 | 0.00 | 56 | 1019.0 |
| 20260509161336 | 62 | 224 | 0.0 | 1.0 | 0.00 | 0.00 | 0.00 | 57 | 1019.3 |
| 20260509160826 | 62 | 194 | 0.0 | 1.0 | 0.00 | 0.00 | 0.00 | 56 | 1019.1 |
| 20260509160316 | 62 | 227 | 0.0 | 0.0 | 0.00 | 0.00 | 0.00 | 58 | 1019.0 |
| 20260509155806 | 62 | 234 | 0.0 | 0.0 | 0.00 | 0.00 | 0.00 | 57 | 1019.3 |
| 20260509155256 | 62 | 230 | 1.0 | 1.0 | 0.00 | 0.00 | 0.00 | 57 | 1019.4 |
| 20260509154746 | 62 | 204 | 0.0 | 1.0 | 0.00 | 0.00 | 0.00 | 55 | 1019.4 |
| 20260509154239 | 62 | 241 | 1.0 | 1.0 | 0.00 | 0.00 | 0.00 | 56 | 1019.5 |
| 20260509153726 | 62 | 231 | 0.0 | 1.0 | 0.00 | 0.00 | 0.00 | 56 | 1019.6 |
| 20260509152319 | 62 | 280 | 2.0 | 3.0 | 0.00 | 0.00 | 0.00 | 55 | 1019.5 |
| 20260509151646 | 62 | 251 | 1.0 | 1.0 | 0.00 | 0.00 | 0.00 | 55 | 1019.9 |
| 20260509150626 | 63 | 214 | 0.0 | 0.0 | 0.00 | 0.00 | 0.00 | 56 | 1019.7 |
| 20260509145645 | 63 | 239 | 0.0 | 0.0 | 0.00 | 0.00 | 0.00 | 56 | 1019.9 |
| 20260509144114 | 62 | 205 | 0.0 | 1.0 | 0.00 | 0.00 | 0.00 | 56 | 1019.9 |
| 20260509143604 | 62 | 255 | 1.0 | 1.0 | 0.00 | 0.00 | 0.00 | 56 | 1019.9 |
| 20260509143016 | 62 | 272 | 2.0 | 2.0 | 0.00 | 0.00 | 0.00 | 57 | 1019.9 |
| 20260509142506 | 62 | 237 | 0.0 | 1.0 | 0.00 | 0.00 | 0.00 | 57 | 1019.9 |
| 20260509141959 | 62 | 246 | 0.0 | 1.0 | 0.00 | 0.00 | 0.00 | 57 | 1019.9 |
| 20260509140936 | 62 | 245 | 0.0 | 1.0 | 0.00 | 0.00 | 0.00 | 57 | 1020.2 |
| 20260509140505 | 62 | 214 | 0.0 | 2.0 | 0.00 | 0.00 | 0.00 | 57 | 1020.2 |
| 20260509133326 | 64 | 205 | 0.0 | 1.0 | 0.00 | 0.00 | 0.00 | 50 | 1020.4 |
| 20260509132307 | 63 | 198 | 0.0 | 3.0 | 0.00 | 0.00 | 0.00 | 49 | 1020.4 |
| 20260509131837 | 63 | 177 | 2.0 | 3.0 | 0.00 | 0.00 | 0.00 | 51 | 1020.3 |
| 20260509131246 | 63 | 181 | 0.0 | 1.0 | 0.00 | 0.00 | 0.00 | 54 | 1020.1 |
| 20260509130814 | 62 | 187 | 2.0 | 2.0 | 0.00 | 0.00 | 0.00 | 51 | 1020.4 |
| 20260509125716 | 63 | 188 | 0.0 | 1.0 | 0.00 | 0.00 | 0.00 | 51 | 1020.3 |
| 20260509124655 | 62 | 202 | 1.0 | 3.0 | 0.00 | 0.00 | 0.00 | 55 | 1020.7 |
| 20260509124145 | 63 | 184 | 0.0 | 1.0 | 0.00 | 0.00 | 0.00 | 53 | 1020.5 |
| 20260509123126 | 63 | 173 | 0.0 | 1.0 | 0.00 | 0.00 | 0.00 | 51 | 1020.6 |
| 20260509122616 | 63 | 201 | 0.0 | 2.0 | 0.00 | 0.00 | 0.00 | 51 | 1020.7 |
| 20260509122105 | 63 | 198 | 0.0 | 1.0 | 0.00 | 0.00 | 0.00 | 53 | 1020.8 |
| 20260509121555 | 63 | 172 | 0.0 | 1.0 | 0.00 | 0.00 | 0.00 | 52 | 1020.8 |
| 20260509121048 | 63 | 203 | 1.0 | 2.0 | 0.00 | 0.00 | 0.00 | 53 | 1021.0 |
| 20260509115515 | 61 | 201 | 0.0 | 1.0 | 0.00 | 0.00 | 0.00 | 56 | 1020.9 |
| 20260509113945 | 65 | 199 | 0.0 | 1.0 | 0.00 | 0.00 | 0.00 | 47 | 1021.1 |
| 20260509113435 | 65 | 217 | 1.0 | 3.0 | 0.00 | 0.00 | 0.00 | 48 | 1020.9 |
| 20260509111905 | 61 | 267 | 0.0 | 1.0 | 0.00 | 0.00 | 0.00 | 53 | 1020.9 |
| 20260509110845 | 61 | 276 | 1.0 | 2.0 | 0.00 | 0.00 | 0.00 | 55 | 1020.9 |
| 20260509110335 | 61 | 210 | 1.0 | 2.0 | 0.00 | 0.00 | 0.00 | 54 | 1021.2 |
| 20260509105315 | 62 | 176 | 0.0 | 2.0 | 0.00 | 0.00 | 0.00 | 52 | 1021.4 |
| 20260509104255 | 64 | 209 | 1.0 | 2.0 | 0.00 | 0.00 | 0.00 | 51 | 1021.4 |
| 20260509102725 | 66 | 206 | 0.0 | 1.0 | 0.00 | 0.00 | 0.00 | 45 | 1021.2 |
| 20260509102215 | 66 | 173 | 2.0 | 2.0 | 0.00 | 0.00 | 0.00 | 47 | 1021.4 |
| 20260509100135 | 64 | 174 | 1.0 | 1.0 | 0.00 | 0.00 | 0.00 | 50 | 1021.4 |
| 20260509094133 | 63 | 185 | 1.0 | 3.0 | 0.00 | 0.00 | 0.00 | 54 | 1021.4 |
| 20260509093545 | 62 | 185 | 1.0 | 1.0 | 0.00 | 0.00 | 0.00 | 53 | 1021.5 |
| 20260509093035 | 61 | 175 | 0.0 | 2.0 | 0.00 | 0.00 | 0.00 | 56 | 1021.7 |
| 20260509092525 | 62 | 165 | 0.0 | 2.0 | 0.00 | 0.00 | 0.00 | 55 | 1021.5 |
| 20260509092015 | 62 | 238 | 1.0 | 1.0 | 0.00 | 0.00 | 0.00 | 55 | 1021.6 |
| 20260509091033 | 62 | 218 | 0.0 | 1.0 | 0.00 | 0.00 | 0.00 | 60 | 1021.6 |
| 20260509085935 | 60 | 207 | 0.0 | 1.0 | 0.00 | 0.00 | 0.00 | 62 | 1021.4 |
| 20260509084915 | 58 | 257 | 0.0 | 1.0 | 0.00 | 0.00 | 0.00 | 67 | 1021.4 |
| 20260509084405 | 57 | 258 | 0.0 | 1.0 | 0.00 | 0.00 | 0.00 | 67 | 1021.5 |
| 20260509083855 | 57 | 267 | 1.0 | 2.0 | 0.00 | 0.00 | 0.00 | 71 | 1021.3 |
| 20260509082403 | 56 | 269 | 2.0 | 3.0 | 0.00 | 0.00 | 0.00 | 71 | 1021.5 |
| 20260509081815 | 56 | 257 | 0.0 | 0.0 | 0.00 | 0.00 | 0.00 | 73 | 1021.6 |
| 20260509081305 | 56 | 219 | 0.0 | 1.0 | 0.00 | 0.00 | 0.00 | 73 | 1021.8 |
| 20260509080755 | 56 | 253 | 1.0 | 1.0 | 0.00 | 0.00 | 0.00 | 73 | 1021.9 |
| 20260509080245 | 55 | 214 | 0.0 | 1.0 | 0.00 | 0.00 | 0.00 | 75 | 1021.8 |
| 20260509075735 | 54 | 237 | 0.0 | 1.0 | 0.00 | 0.00 | 0.00 | 76 | 1021.5 |
| 20260509074205 | 54 | 208 | 0.0 | 1.0 | 0.00 | 0.00 | 0.00 | 77 | 1021.7 |
| 20260509073654 | 53 | 251 | 0.0 | 0.0 | 0.00 | 0.00 | 0.00 | 78 | 1021.7 |
| 20260509073223 | 53 | 244 | 1.0 | 1.0 | 0.00 | 0.00 | 0.00 | 78 | 1021.6 |
| 20260509072713 | 53 | 219 | 0.0 | 1.0 | 0.00 | 0.00 | 0.00 | 78 | 1021.6 |
| 20260509072203 | 53 | 195 | 0.0 | 1.0 | 0.00 | 0.00 | 0.00 | 79 | 1021.5 |
| 20260509071615 | 52 | 230 | 0.0 | 0.0 | 0.00 | 0.00 | 0.00 | 80 | 1021.7 |
| 20260509071143 | 52 | 227 | 0.0 | 1.0 | 0.00 | 0.00 | 0.00 | 80 | 1021.6 |
| 20260509070045 | 51 | 236 | 0.0 | 0.0 | 0.00 | 0.00 | 0.00 | 81 | 1021.5 |
| 20260509065534 | 51 | 220 | 0.0 | 0.0 | 0.00 | 0.00 | 0.00 | 81 | 1021.5 |
| 20260509065028 | 51 | 238 | 1.0 | 2.0 | 0.00 | 0.00 | 0.00 | 81 | 1021.6 |
| 20260509064514 | 51 | 223 | 0.0 | 0.0 | 0.00 | 0.00 | 0.00 | 82 | 1021.5 |
| 20260509064043 | 51 | 198 | 0.0 | 1.0 | 0.00 | 0.00 | 0.00 | 81 | 1021.6 |
| 20260509062944 | 50 | 245 | 0.0 | 0.0 | 0.00 | 0.00 | 0.00 | 83 | 1021.4 |
| 20260509062513 | 49 | 245 | 0.0 | 1.0 | 0.00 | 0.00 | 0.00 | 83 | 1021.4 |
| 20260509061924 | 49 | 245 | 0.0 | 0.0 | 0.00 | 0.00 | 0.00 | 84 | 1021.3 |
| 20260509061414 | 48 | 249 | 0.0 | 0.0 | 0.00 | 0.00 | 0.00 | 85 | 1021.4 |
| 20260509061027 | 48 | 247 | 0.0 | 0.0 | 0.00 | 0.00 | 0.00 | 85 | 1021.4 |
| 20260509055846 | 48 | 248 | 0.0 | 0.0 | 0.00 | 0.00 | 0.00 | 86 | 1021.6 |
| 20260509055334 | 48 | 247 | 0.0 | 1.0 | 0.00 | 0.00 | 0.00 | 86 | 1021.3 |
| 20260509054824 | 47 | 247 | 1.0 | 1.0 | 0.00 | 0.00 | 0.00 | 86 | 1021.3 |
| 20260509052747 | 47 | 246 | 0.0 | 0.0 | 0.00 | 0.00 | 0.00 | 87 | 1021.3 |
| 20260509052234 | 47 | 246 | 0.0 | 0.0 | 0.00 | 0.00 | 0.00 | 87 | 1021.2 |
| 20260509050827 | 47 | 246 | 0.0 | 0.0 | 0.00 | 0.00 | 0.00 | 87 | 1021.2 |
| 20260509045134 | 47 | 246 | 0.0 | 0.0 | 0.00 | 0.00 | 0.00 | 88 | 1021.2 |
| 20260509044114 | 46 | 245 | 0.0 | 1.0 | 0.00 | 0.00 | 0.00 | 87 | 1021.3 |
| 20260509043604 | 46 | 245 | 0.0 | 0.0 | 0.00 | 0.00 | 0.00 | 88 | 1021.1 |
| 20260509043132 | 46 | 245 | 0.0 | 0.0 | 0.00 | 0.00 | 0.00 | 88 | 1021.1 |
| 20260509042544 | 46 | 245 | 0.0 | 0.0 | 0.00 | 0.00 | 0.00 | 88 | 1021.3 |
| 20260509042112 | 46 | 245 | 0.0 | 0.0 | 0.00 | 0.00 | 0.00 | 88 | 1020.9 |
| 20260509041524 | 46 | 245 | 0.0 | 0.0 | 0.00 | 0.00 | 0.00 | 88 | 1021.0 |
| 20260509040504 | 46 | 245 | 0.0 | 0.0 | 0.00 | 0.00 | 0.00 | 88 | 1021.0 |
| 20260509035954 | 46 | 245 | 0.0 | 0.0 | 0.00 | 0.00 | 0.00 | 88 | 1021.0 |
| 20260509035606 | 46 | 245 | 0.0 | 0.0 | 0.00 | 0.00 | 0.00 | 88 | 1021.1 |
| 20260509034934 | 46 | 245 | 0.0 | 0.0 | 0.00 | 0.00 | 0.00 | 88 | 1021.0 |
| 20260509034424 | 46 | 246 | 0.0 | 0.0 | 0.00 | 0.00 | 0.00 | 88 | 1021.0 |
| 20260509032422 | 46 | 245 | 0.0 | 0.0 | 0.00 | 0.00 | 0.00 | 88 | 1021.2 |
| 20260509031324 | 46 | 245 | 0.0 | 0.0 | 0.00 | 0.00 | 0.00 | 88 | 1020.8 |
| 20260509030814 | 46 | 245 | 0.0 | 0.0 | 0.00 | 0.00 | 0.00 | 87 | 1020.9 |
| 20260509030304 | 46 | 245 | 0.0 | 0.0 | 0.00 | 0.00 | 0.00 | 87 | 1021.0 |
| 20260509025754 | 46 | 245 | 0.0 | 0.0 | 0.00 | 0.00 | 0.00 | 87 | 1021.0 |
| 20260509024735 | 46 | 245 | 0.0 | 0.0 | 0.00 | 0.00 | 0.00 | 86 | 1021.2 |
| 20260509024224 | 46 | 245 | 0.0 | 0.0 | 0.00 | 0.00 | 0.00 | 86 | 1021.3 |
| 20260509023713 | 46 | 245 | 0.0 | 0.0 | 0.00 | 0.00 | 0.00 | 86 | 1020.9 |
| 20260509023204 | 46 | 245 | 0.0 | 0.0 | 0.00 | 0.00 | 0.00 | 86 | 1021.0 |
| 20260509022654 | 46 | 245 | 0.0 | 0.0 | 0.00 | 0.00 | 0.00 | 86 | 1021.0 |
| 20260509022144 | 46 | 245 | 0.0 | 0.0 | 0.00 | 0.00 | 0.00 | 86 | 1021.1 |
| 20260509021712 | 46 | 245 | 0.0 | 0.0 | 0.00 | 0.00 | 0.00 | 86 | 1021.1 |
| 20260509021249 | 46 | 245 | 0.0 | 0.0 | 0.00 | 0.00 | 0.00 | 86 | 1021.0 |
| 20260509020226 | 46 | 245 | 0.0 | 0.0 | 0.00 | 0.00 | 0.00 | 86 | 1021.1 |
| 20260509015043 | 47 | 245 | 0.0 | 0.0 | 0.00 | 0.00 | 0.00 | 86 | 1021.1 |
| 20260509014533 | 47 | 245 | 0.0 | 0.0 | 0.00 | 0.00 | 0.00 | 86 | 1021.2 |
| 20260509013513 | 47 | 245 | 0.0 | 0.0 | 0.00 | 0.00 | 0.00 | 86 | 1021.1 |
| 20260509013042 | 47 | 245 | 0.0 | 0.0 | 0.00 | 0.00 | 0.00 | 86 | 1021.2 |
| 20260509012453 | 47 | 245 | 0.0 | 0.0 | 0.00 | 0.00 | 0.00 | 86 | 1021.0 |
| 20260509011943 | 47 | 245 | 0.0 | 0.0 | 0.00 | 0.00 | 0.00 | 85 | 1020.9 |
| 20260509011434 | 47 | 245 | 0.0 | 0.0 | 0.00 | 0.00 | 0.00 | 85 | 1020.8 |
| 20260509010923 | 47 | 245 | 0.0 | 0.0 | 0.00 | 0.00 | 0.00 | 84 | 1020.9 |
| 20260509010413 | 47 | 245 | 0.0 | 0.0 | 0.00 | 0.00 | 0.00 | 84 | 1021.1 |
| 20260509005353 | 47 | 245 | 0.0 | 0.0 | 0.00 | 0.00 | 0.00 | 84 | 1021.1 |
| 20260509004925 | 47 | 245 | 0.0 | 0.0 | 0.00 | 0.00 | 0.00 | 83 | 1021.0 |
| 20260509004333 | 47 | 245 | 0.0 | 0.0 | 0.00 | 0.00 | 0.00 | 83 | 1020.8 |
| 20260509003905 | 47 | 245 | 0.0 | 0.0 | 0.00 | 0.00 | 0.00 | 83 | 1020.8 |
| 20260509001743 | 48 | 245 | 0.0 | 0.0 | 0.00 | 0.00 | 0.00 | 82 | 1021.0 |
| 20260509001311 | 48 | 245 | 0.0 | 0.0 | 0.00 | 0.00 | 0.00 | 82 | 1021.4 |
| 20260509000723 | 48 | 245 | 0.0 | 0.0 | 0.00 | 0.00 | 0.00 | 82 | 1021.2 |
| 20260508235744 | 48 | 245 | 0.0 | 0.0 | 0.00 | 0.00 | 0.00 | 81 | 1021.3 |
| 20260508234133 | 48 | 245 | 0.0 | 0.0 | 0.00 | 0.00 | 0.00 | 81 | 1021.2 |
| 20260508232053 | 49 | 245 | 0.0 | 0.0 | 0.00 | 0.00 | 0.00 | 80 | 1021.2 |
| 20260508231621 | 49 | 245 | 0.0 | 0.0 | 0.00 | 0.00 | 0.00 | 80 | 1021.4 |
| 20260508231033 | 49 | 245 | 0.0 | 0.0 | 0.00 | 0.00 | 0.00 | 79 | 1021.3 |
| 20260508230523 | 49 | 245 | 0.0 | 0.0 | 0.00 | 0.00 | 0.00 | 79 | 1021.3 |
| 20260508230013 | 49 | 245 | 0.0 | 0.0 | 0.00 | 0.00 | 0.00 | 79 | 1021.2 |
| 20260508225503 | 49 | 244 | 0.0 | 0.0 | 0.00 | 0.00 | 0.00 | 79 | 1021.2 |
| 20260508224011 | 50 | 245 | 0.0 | 1.0 | 0.00 | 0.00 | 0.00 | 77 | 1021.4 |
| 20260508222913 | 50 | 244 | 0.0 | 0.0 | 0.00 | 0.00 | 0.00 | 77 | 1021.5 |
| 20260508222403 | 50 | 244 | 0.0 | 1.0 | 0.00 | 0.00 | 0.00 | 77 | 1021.4 |
| 20260508215812 | 51 | 238 | 0.0 | 1.0 | 0.00 | 0.00 | 0.00 | 78 | 1021.4 |
| 20260508214834 | 51 | 241 | 0.0 | 1.0 | 0.00 | 0.00 | 0.00 | 79 | 1021.3 |
| 20260508214321 | 51 | 237 | 0.0 | 0.0 | 0.00 | 0.00 | 0.00 | 79 | 1021.4 |
| 20260508213733 | 51 | 237 | 0.0 | 0.0 | 0.00 | 0.00 | 0.00 | 79 | 1021.3 |
| 20260508213223 | 51 | 237 | 0.0 | 0.0 | 0.00 | 0.00 | 0.00 | 78 | 1021.2 |
| 20260508212713 | 51 | 237 | 0.0 | 0.0 | 0.00 | 0.00 | 0.00 | 79 | 1021.2 |
| 20260508212203 | 51 | 237 | 0.0 | 0.0 | 0.00 | 0.00 | 0.00 | 80 | 1021.2 |
| 20260508205612 | 51 | 237 | 0.0 | 0.0 | 0.00 | 0.00 | 0.00 | 80 | 1021.4 |
| 20260508205102 | 51 | 237 | 0.0 | 0.0 | 0.00 | 0.00 | 0.00 | 81 | 1021.3 |
| 20260508204552 | 51 | 237 | 0.0 | 0.0 | 0.00 | 0.00 | 0.00 | 81 | 1021.3 |
| 20260508204042 | 51 | 237 | 0.0 | 0.0 | 0.00 | 0.00 | 0.00 | 80 | 1021.3 |
| 20260508203532 | 51 | 237 | 0.0 | 0.0 | 0.00 | 0.00 | 0.00 | 80 | 1021.1 |
| 20260508203023 | 51 | 237 | 0.0 | 0.0 | 0.00 | 0.00 | 0.00 | 80 | 1021.2 |
| 20260508202002 | 51 | 237 | 0.0 | 0.0 | 0.00 | 0.00 | 0.00 | 79 | 1021.0 |
| 20260508201452 | 51 | 237 | 0.0 | 0.0 | 0.00 | 0.00 | 0.00 | 79 | 1021.0 |
| 20260508201021 | 52 | 237 | 0.0 | 0.0 | 0.00 | 0.00 | 0.00 | 80 | 1020.9 |
| 20260508200432 | 52 | 237 | 0.0 | 0.0 | 0.00 | 0.00 | 0.00 | 80 | 1021.0 |
| 20260508195922 | 52 | 237 | 0.0 | 0.0 | 0.00 | 0.00 | 0.00 | 80 | 1021.0 |
| 20260508195412 | 52 | 237 | 0.0 | 0.0 | 0.00 | 0.00 | 0.00 | 80 | 1021.3 |
| 20260508194905 | 52 | 237 | 0.0 | 0.0 | 0.00 | 0.00 | 0.00 | 80 | 1021.1 |
| 20260508193842 | 52 | 237 | 0.0 | 0.0 | 0.00 | 0.00 | 0.00 | 79 | 1021.0 |
| 20260508192901 | 53 | 237 | 0.0 | 0.0 | 0.00 | 0.00 | 0.00 | 78 | 1020.8 |
| 20260508191252 | 53 | 237 | 0.0 | 0.0 | 0.00 | 0.00 | 0.00 | 77 | 1020.6 |
| 20260508185722 | 53 | 237 | 0.0 | 0.0 | 0.00 | 0.00 | 0.00 | 76 | 1020.7 |
| 20260508185250 | 53 | 237 | 0.0 | 0.0 | 0.00 | 0.00 | 0.00 | 75 | 1020.7 |
| 20260508184743 | 53 | 237 | 0.0 | 0.0 | 0.00 | 0.00 | 0.00 | 75 | 1020.7 |
| 20260508183642 | 53 | 237 | 0.0 | 0.0 | 0.00 | 0.00 | 0.00 | 75 | 1020.5 |
| 20260508183132 | 53 | 237 | 0.0 | 0.0 | 0.00 | 0.00 | 0.00 | 75 | 1020.6 |
| 20260508182622 | 53 | 237 | 0.0 | 0.0 | 0.00 | 0.00 | 0.00 | 74 | 1020.6 |
| 20260508180542 | 54 | 237 | 0.0 | 0.0 | 0.00 | 0.00 | 0.00 | 72 | 1020.2 |
| 20260508180035 | 54 | 237 | 0.0 | 1.0 | 0.00 | 0.00 | 0.00 | 72 | 1020.3 |
| 20260508175522 | 54 | 237 | 0.0 | 0.0 | 0.00 | 0.00 | 0.00 | 71 | 1020.3 |
| 20260508174502 | 54 | 240 | 0.0 | 1.0 | 0.00 | 0.00 | 0.00 | 70 | 1020.3 |
| 20260508173955 | 55 | 236 | 0.0 | 0.0 | 0.00 | 0.00 | 0.00 | 70 | 1020.2 |
| 20260508173520 | 55 | 236 | 0.0 | 1.0 | 0.00 | 0.00 | 0.00 | 70 | 1020.2 |
| 20260508172422 | 55 | 239 | 0.0 | 1.0 | 0.00 | 0.00 | 0.00 | 69 | 1020.3 |
| 20260508171912 | 55 | 236 | 0.0 | 1.0 | 0.00 | 0.00 | 0.00 | 69 | 1020.1 |
| 20260508171440 | 55 | 233 | 0.0 | 0.0 | 0.00 | 0.00 | 0.00 | 69 | 1019.9 |
| 20260508170420 | 56 | 192 | 0.0 | 2.0 | 0.00 | 0.00 | 0.00 | 68 | 1019.9 |
| 20260508165832 | 56 | 249 | 0.0 | 1.0 | 0.00 | 0.00 | 0.00 | 67 | 1020.0 |
| 20260508165400 | 56 | 242 | 1.0 | 1.0 | 0.00 | 0.00 | 0.00 | 67 | 1019.9 |
| 20260508164301 | 56 | 210 | 0.0 | 1.0 | 0.00 | 0.00 | 0.00 | 67 | 1019.9 |
| 20260508163242 | 56 | 253 | 0.0 | 0.0 | 0.00 | 0.00 | 0.00 | 66 | 1020.0 |
| 20260508162731 | 56 | 249 | 0.0 | 1.0 | 0.00 | 0.00 | 0.00 | 65 | 1020.0 |